W2JV-2 Weather Reports


Display with metric or nautical units.
time (UTC)temp
F
wind
direction
speed
MPH
gust
MPH
rain 1hr
in
rain 24hr
in
rain mn
in
humidity
%
barometer
mb
20260902040004 67 236 0.0 3.0 0.00 1.13 0.00 87 1017.5
20260902035003 67 172 0.0 2.0 0.00 1.13 1.13 87 1017.5
20260902034003 67 97 1.0 2.0 0.00 1.13 1.13 87 1017.7
20260902033503 67 307 1.0 3.0 0.00 1.13 1.13 87 1017.5
20260902032503 67 320 0.0 2.0 0.00 1.13 1.13 87 1017.4
20260902032003 67 177 0.0 2.0 0.00 1.13 1.13 87 1017.4
20260902031502 67 190 1.0 3.0 0.00 1.13 1.13 87 1017.5
20260902031002 67 274 0.0 2.0 0.00 1.13 1.13 87 1017.6
20260902030502 67 112 1.0 3.0 0.00 1.13 1.13 87 1017.7
20260902030003 67 99 1.0 3.0 0.00 1.13 1.13 87 1017.6
20260902025003 67 226 1.0 3.0 0.00 1.13 1.13 87 1017.4
20260902024503 67 164 0.0 3.0 0.00 1.13 1.13 87 1017.3
20260902024002 67 292 2.0 3.0 0.00 1.13 1.13 87 1017.3
20260902023502 67 298 1.0 3.0 0.00 1.13 1.13 87 1017.2
20260902022002 68 307 0.0 0.0 0.00 1.13 1.13 87 1016.9
20260902021502 68 0 0.0 3.0 0.00 1.13 1.13 87 1016.9
20260902021002 68 25 1.0 2.0 0.00 1.13 1.13 87 1016.8
20260902020503 68 85 1.0 3.0 0.00 1.13 1.13 87 1016.9
20260902020003 68 306 1.0 3.0 0.00 1.13 1.13 87 1016.6
20260902015503 68 306 2.0 5.0 0.00 1.13 1.13 87 1016.6
20260902015003 68 84 1.0 5.0 0.00 1.13 1.13 87 1016.5
20260902014503 68 125 1.0 2.0 0.00 1.13 1.13 87 1016.3
20260902014003 68 13 1.0 3.0 0.00 1.13 1.13 87 1016.4
20260902013502 68 322 1.0 2.0 0.00 1.13 1.13 87 1016.3
20260902012503 69 257 1.0 3.0 0.00 1.13 1.13 87 1016.2
20260902012003 69 308 0.0 1.0 0.00 1.13 1.13 87 1015.9
20260902011004 69 157 1.0 3.0 0.00 1.13 1.13 87 1015.7
20260902010502 69 89 1.0 3.0 0.00 1.13 1.13 87 1015.7
20260902010002 69 295 0.0 2.0 0.00 1.13 1.13 87 1015.7
20260902005503 69 80 1.0 5.0 0.00 1.13 1.13 87 1015.7
20260902005003 69 4 2.0 5.0 0.00 1.13 1.13 87 1015.6
20260902004002 69 309 1.0 6.0 0.00 1.13 1.13 87 1015.4
20260902003502 70 345 1.0 8.0 0.00 1.13 1.13 87 1015.4
20260902003003 70 15 1.0 5.0 0.00 1.13 1.13 87 1015.4
20260902002502 70 347 2.0 7.0 0.00 1.13 1.13 87 1015.4
20260902002003 70 338 1.0 5.0 0.00 1.13 1.13 87 1015.2
20260902001503 71 324 1.0 7.0 0.00 1.13 1.13 87 1015.1
20260902001003 71 348 0.0 3.0 0.00 1.13 1.13 87 1015.3
20260902000503 71 344 1.0 3.0 0.00 1.13 1.13 87 1015.4
20260902000003 72 0 1.0 6.0 0.00 1.13 1.13 87 1015.3
20260901235003 72 326 1.0 3.0 0.00 1.13 1.13 88 1015.0
20260901234504 72 328 1.0 2.0 0.00 1.13 1.13 88 1014.9
20260901233504 72 319 1.0 6.0 0.00 1.13 1.13 87 1015.1
20260901232503 73 329 1.0 5.0 0.00 1.13 1.13 88 1015.0
20260901232003 73 335 1.0 3.0 0.00 1.13 1.13 87 1015.0
20260901231002 73 343 1.0 3.0 0.00 1.13 1.13 88 1014.8
20260901230502 73 337 1.0 3.0 0.00 1.13 1.13 88 1014.8
20260901230002 74 330 0.0 3.0 0.00 1.13 1.13 88 1014.6
20260901225002 74 294 0.0 1.0 0.00 1.13 1.13 88 1014.4
20260901224503 74 294 0.0 0.0 0.00 1.13 1.13 87 1014.4
20260901224003 74 294 0.0 1.0 0.00 1.13 1.13 87 1014.4
20260901223504 74 308 0.0 3.0 0.00 1.13 1.13 88 1014.4
20260901222503 74 312 0.0 0.0 0.00 1.13 1.13 88 1014.3
20260901222004 74 322 0.0 0.0 0.00 1.13 1.13 88 1014.3
20260901221503 74 322 0.0 0.0 0.00 1.13 1.13 88 1014.4
20260901221003 75 322 0.0 0.0 0.00 1.13 1.13 87 1014.4
20260901220504 75 294 0.0 1.0 0.00 1.13 1.13 87 1014.4
20260901220002 75 219 1.0 3.0 0.00 1.13 1.13 87 1014.2
20260901215504 75 310 1.0 3.0 0.00 1.13 1.13 87 1014.4
20260901215003 75 326 1.0 3.0 0.00 1.13 1.13 87 1014.3
20260901214503 75 301 0.0 3.0 0.00 1.13 1.13 87 1014.3
20260901214003 75 331 1.0 3.0 0.00 1.13 1.13 87 1014.3
20260901213502 76 348 1.0 3.0 0.00 1.13 1.13 87 1014.4
20260901213002 76 357 0.0 0.0 0.00 1.13 1.13 87 1014.3
20260901212502 76 298 0.0 1.0 0.00 1.13 1.13 87 1014.3
20260901212002 76 295 1.0 3.0 0.00 1.13 1.13 87 1014.3
20260901211502 76 121 1.0 2.0 0.00 1.13 1.13 87 1014.3
20260901210003 77 157 0.0 0.0 0.00 1.13 1.13 87 1014.4
20260901205003 77 319 0.0 1.0 0.00 1.13 1.13 87 1014.3
20260901204502 77 338 0.0 0.0 0.00 1.13 1.13 87 1014.2
20260901204003 77 338 0.0 0.0 0.00 1.13 1.13 87 1014.3
20260901203002 77 337 0.0 2.0 0.00 1.13 1.13 87 1014.1
20260901202503 77 89 1.0 7.0 0.00 1.13 1.13 87 1014.1
20260901202002 78 3 0.0 0.0 0.00 1.13 1.13 87 1014.1
20260901201503 78 124 0.0 0.0 0.00 1.13 1.13 87 1014.1
20260901201002 78 124 0.0 0.0 0.00 1.13 1.13 87 1014.0
20260901200503 78 124 0.0 0.0 0.00 1.13 1.13 87 1013.9
20260901200004 78 198 0.0 0.0 0.00 1.13 1.13 87 1014.0
20260901195503 78 198 0.0 0.0 0.00 1.13 1.13 87 1014.0
20260901195002 78 198 0.0 0.0 0.00 1.13 1.13 87 1014.0
20260901194503 78 148 0.0 0.0 0.00 1.13 1.13 88 1013.9
20260901194003 78 136 0.0 0.0 0.00 1.13 1.13 88 1014.0
20260901193502 78 136 0.0 0.0 0.00 1.13 1.13 88 1014.1
20260901193002 78 141 0.0 0.0 0.00 1.13 1.13 88 1014.0
20260901192502 78 190 1.0 3.0 0.00 1.13 1.13 88 1014.0
20260901192003 78 222 0.0 1.0 0.00 1.13 1.13 88 1014.0
20260901191003 78 147 1.0 3.0 0.01 1.13 1.13 88 1014.1
20260901190502 77 219 1.0 2.0 0.01 1.13 1.13 88 1014.0
20260901190003 77 185 0.0 2.0 0.01 1.13 1.13 89 1014.0
20260901185503 77 223 1.0 2.0 0.01 1.13 1.13 89 1014.0
20260901185003 77 258 0.0 3.0 0.01 1.13 1.13 89 1013.9
20260901184502 78 222 1.0 3.0 0.01 1.13 1.13 89 1014.0
20260901184003 77 119 0.0 3.0 0.01 1.13 1.13 89 1014.0
20260901183502 77 219 1.0 3.0 0.01 1.13 1.13 89 1014.0
20260901183004 77 235 2.0 3.0 0.01 1.13 1.13 89 1014.0
20260901182502 77 188 1.0 2.0 0.01 1.13 1.13 89 1014.0
20260901182002 77 140 1.0 2.0 0.01 1.13 1.13 89 1014.1
20260901181002 77 174 1.0 3.0 0.00 1.12 1.12 90 1014.1
20260901180004 76 171 1.0 3.0 0.00 1.12 1.12 89 1014.1
20260901175502 76 155 2.0 5.0 0.00 1.12 1.12 89 1014.1
20260901175003 76 125 1.0 3.0 0.00 1.12 1.12 89 1014.2
20260901174503 75 172 0.0 0.0 0.00 1.12 1.12 89 1014.1
20260901174003 75 209 0.0 0.0 0.01 1.12 1.12 89 1014.1
20260901173502 75 172 0.0 0.0 0.01 1.12 1.12 89 1014.3
20260901173002 75 178 0.0 1.0 0.01 1.12 1.12 89 1014.5
20260901172502 75 224 1.0 3.0 0.01 1.12 1.12 89 1014.4
20260901170503 74 220 1.0 2.0 0.03 1.12 1.12 89 1014.5
20260901170003 74 220 1.0 2.0 0.03 1.12 1.12 89 1014.4
20260901165003 74 180 1.0 2.0 0.05 1.12 1.12 89 1014.7
20260901164503 74 184 1.0 3.0 0.05 1.12 1.12 89 1014.9
20260901164003 74 190 2.0 3.0 0.04 1.11 1.11 89 1014.9
20260901163003 74 133 1.0 3.0 0.05 1.11 1.11 89 1015.1
20260901162504 73 141 1.0 2.0 0.05 1.11 1.11 89 1015.3
20260901162003 73 192 1.0 2.0 0.05 1.11 1.11 89 1015.2
20260901161503 73 170 1.0 2.0 0.04 1.10 1.10 89 1015.3
20260901161003 73 178 1.0 2.0 0.04 1.10 1.10 89 1015.3
20260901160502 73 171 2.0 3.0 0.03 1.09 1.09 89 1015.5
20260901155503 73 223 0.0 2.0 0.03 1.08 1.08 89 1015.9
20260901155003 73 226 2.0 3.0 0.06 1.07 1.07 89 1015.7
20260901154504 73 210 1.0 2.0 0.11 1.07 1.07 89 1015.5
20260901154003 73 226 1.0 3.0 0.11 1.07 1.07 89 1015.5
20260901153504 73 170 2.0 3.0 0.11 1.07 1.07 89 1015.5
20260901153004 73 192 0.0 2.0 0.10 1.06 1.06 89 1015.5
20260901152503 73 182 1.0 7.0 0.10 1.06 1.06 89 1015.4
20260901151003 73 224 1.0 2.0 0.11 1.06 1.06 89 1015.6
20260901145503 72 145 1.0 3.0 0.10 1.05 1.05 89 1015.8
20260901145003 72 183 1.0 3.0 0.06 1.01 1.01 89 1016.1
20260901144503 72 207 0.0 0.0 0.01 0.96 0.96 89 1016.2
20260901144004 72 207 0.0 1.0 0.01 0.96 0.96 89 1016.1
20260901143504 72 207 0.0 0.0 0.01 0.96 0.96 89 1016.0
20260901143003 72 207 0.0 0.0 0.01 0.96 0.96 89 1016.0
20260901142504 72 207 0.0 1.0 0.01 0.96 0.96 89 1015.9
20260901142003 72 177 1.0 2.0 0.01 0.96 0.96 89 1015.8
20260901141502 72 194 1.0 2.0 0.00 0.95 0.95 89 1015.9
20260901141003 72 171 1.0 3.0 0.00 0.95 0.95 89 1015.9
20260901140503 72 172 0.0 1.0 0.00 0.95 0.95 89 1015.9
20260901140004 72 229 0.0 2.0 0.00 0.95 0.95 89 1015.9
20260901135503 72 192 1.0 3.0 0.00 0.95 0.95 89 1015.9
20260901135004 72 219 0.0 1.0 0.00 0.95 0.95 89 1015.8
20260901134502 72 219 0.0 1.0 0.00 0.95 0.95 89 1015.6
20260901133503 72 203 1.0 2.0 0.00 0.95 0.95 89 1015.7
20260901133002 72 148 1.0 2.0 0.00 0.95 0.95 89 1015.5
20260901131004 72 227 1.0 2.0 0.00 0.95 0.95 89 1015.6
20260901130503 72 182 0.0 2.0 0.00 0.95 0.95 89 1015.6
20260901125503 72 179 0.0 1.0 0.00 0.95 0.95 89 1015.7
20260901124503 71 198 1.0 1.0 0.00 0.95 0.95 89 1015.9
20260901123502 71 218 1.0 2.0 0.00 0.95 0.95 89 1015.9
20260901123003 71 184 1.0 2.0 0.00 0.95 0.95 89 1015.9
20260901122502 71 182 1.0 2.0 0.00 0.95 0.95 89 1015.9
20260901122002 71 182 0.0 1.0 0.00 0.95 0.95 89 1016.1
20260901121502 71 182 0.0 0.0 0.00 0.95 0.95 89 1016.2
20260901121003 71 182 0.0 2.0 0.00 0.95 0.95 89 1016.0
20260901120502 71 172 1.0 2.0 0.00 0.95 0.95 89 1015.9
20260901120003 71 172 1.0 2.0 0.00 0.95 0.95 89 1015.9
20260901115003 70 212 1.0 2.0 0.00 0.95 0.95 89 1015.9
20260901114503 70 214 0.0 2.0 0.00 0.95 0.95 89 1015.9
20260901114003 70 182 0.0 1.0 0.00 0.95 0.95 89 1015.8
20260901113503 70 180 1.0 3.0 0.00 0.95 0.95 88 1015.9
20260901113003 70 199 0.0 1.0 0.00 0.95 0.95 88 1016.0
20260901112503 70 199 0.0 2.0 0.00 0.95 0.95 88 1016.0
20260901112003 70 244 1.0 2.0 0.00 0.95 0.95 88 1016.0
20260901111503 70 227 0.0 3.0 0.00 0.95 0.95 88 1016.1
20260901110503 70 176 1.0 3.0 0.00 0.95 0.95 89 1015.9
20260901110004 70 172 1.0 3.0 0.00 0.95 0.95 89 1015.9
20260901105502 70 177 1.0 3.0 0.00 0.95 0.95 88 1015.9
20260901105004 70 172 1.0 2.0 0.00 0.95 0.95 88 1015.9
20260901104003 70 172 1.0 3.0 0.00 0.95 0.95 88 1015.7
20260901103503 70 172 1.0 2.0 0.00 0.95 0.95 88 1015.7
20260901102003 70 177 1.0 2.0 0.00 0.95 0.95 88 1015.6
20260901101503 70 177 1.0 3.0 0.00 0.95 0.95 88 1015.7
20260901101003 70 177 1.0 3.0 0.00 0.95 0.95 88 1015.7
20260901100503 70 197 0.0 0.0 0.00 0.95 0.95 88 1015.8
20260901100004 70 192 0.0 0.0 0.00 0.95 0.95 88 1015.7
20260901095503 70 225 0.0 0.0 0.00 0.95 0.95 88 1015.6
20260901095004 70 194 0.0 0.0 0.00 0.95 0.95 88 1015.5
20260901094003 70 194 0.0 0.0 0.00 0.95 0.95 88 1015.6
20260901092503 70 182 0.0 0.0 0.00 0.95 0.95 88 1015.9
20260901092003 70 198 0.0 0.0 0.00 0.95 0.95 88 1015.9
20260901091503 70 203 0.0 0.0 0.00 0.95 0.95 88 1015.8
20260901091003 70 182 0.0 0.0 0.00 0.95 0.95 88 1015.8
20260901090504 70 182 0.0 0.0 0.01 0.95 0.95 88 1015.8
20260901090003 70 182 0.0 0.0 0.01 0.95 0.95 88 1015.9
20260901085503 70 182 0.0 0.0 0.01 0.95 0.95 88 1015.8
20260901085002 70 182 0.0 0.0 0.01 0.95 0.95 88 1015.9
20260901084503 70 182 0.0 0.0 0.01 0.95 0.95 88 1016.0
20260901084003 70 182 0.0 0.0 0.01 0.95 0.95 88 1016.0
20260901083503 70 182 0.0 0.0 0.01 0.95 0.95 88 1016.1
20260901083004 70 182 0.0 0.0 0.01 0.95 0.95 88 1016.1
20260901081003 70 196 0.0 0.0 0.05 0.95 0.95 87 1016.2
20260901080003 70 143 1.0 2.0 0.09 0.94 0.94 87 1016.3
20260901075504 70 165 1.0 2.0 0.14 0.94 0.94 87 1016.4
20260901075002 70 163 1.0 2.0 0.16 0.94 0.94 87 1016.3
20260901074502 70 151 0.0 2.0 0.17 0.94 0.94 87 1016.3
20260901074003 70 173 1.0 2.0 0.17 0.94 0.94 87 1016.4
20260901073502 70 177 1.0 2.0 0.18 0.94 0.94 87 1016.5
20260901073003 70 203 0.0 0.0 0.20 0.94 0.94 87 1016.6
20260901072503 70 182 0.0 0.0 0.21 0.94 0.94 87 1016.7
20260901071502 70 240 0.0 1.0 0.20 0.92 0.92 87 1016.8
20260901071003 70 240 1.0 2.0 0.29 0.90 0.90 87 1016.6
20260901070503 70 168 0.0 0.0 0.37 0.89 0.89 86 1016.5
20260901070003 70 145 0.0 0.0 0.39 0.85 0.85 86 1016.7
20260901065503 71 145 0.0 0.0 0.38 0.80 0.80 86 1016.8
20260901065003 71 145 0.0 0.0 0.39 0.78 0.78 86 1016.7
20260901064503 71 145 0.0 0.0 0.43 0.77 0.77 86 1016.7
20260901064004 71 145 0.0 0.0 0.48 0.77 0.77 86 1016.7
20260901063503 71 145 0.0 0.0 0.53 0.76 0.76 86 1016.7
20260901063004 71 145 0.0 0.0 0.56 0.75 0.75 85 1016.7
20260901062503 71 203 0.0 0.0 0.57 0.73 0.73 84 1016.6
20260901062003 71 182 0.0 0.0 0.61 0.73 0.73 83 1016.5
20260901061503 71 182 0.0 1.0 0.63 0.72 0.72 82 1016.6
20260901060503 71 182 0.0 2.0 0.47 0.53 0.53 81 1016.9
20260901060002 71 182 1.0 2.0 0.43 0.48 0.48 81 1016.9
20260901055503 71 188 0.0 0.0 0.41 0.43 0.43 81 1017.1
20260901055003 71 186 0.0 0.0 0.38 0.39 0.39 81 1017.2
20260901054003 72 153 0.0 2.0 0.29 0.29 0.29 80 1017.2
20260901053003 72 234 0.0 0.0 0.19 0.19 0.19 79 1017.4
20260901052503 72 188 0.0 0.0 0.16 0.16 0.16 79 1017.4
20260901052004 72 188 0.0 0.0 0.12 0.12 0.12 79 1017.5
20260901051502 72 188 0.0 0.0 0.09 0.09 0.09 78 1017.5
20260901051003 72 188 0.0 0.0 0.07 0.07 0.07 78 1017.4
20260901050503 72 188 0.0 0.0 0.06 0.06 0.06 78 1017.4
20260901045502 72 188 0.0 0.0 0.02 0.02 0.02 77 1017.5
20260901045004 72 192 0.0 0.0 0.01 0.01 0.01 77 1017.4
20260901044505 72 195 0.0 0.0 0.01 0.01 0.01 77 1017.3
20260901044003 72 195 0.0 0.0 0.00 0.00 0.00 77 1017.3
20260901043504 72 195 0.0 0.0 0.00 0.00 0.00 76 1017.3
20260901043004 72 195 0.0 0.0 0.00 0.00 0.00 76 1017.3
20260901042503 72 195 0.0 0.0 0.00 0.00 0.00 76 1017.3
20260901042003 72 167 0.0 0.0 0.00 0.00 0.00 76 1017.2
20260901041005 72 167 0.0 0.0 0.00 0.00 0.00 76 1017.3
20260901040502 72 167 0.0 0.0 0.00 0.00 0.00 76 1017.2